Weather Roundup
Issued by NWS Corpus Christi, TX

Home | Current Version | Previous Version | Text Only | Print | Product List | Glossary On
Versions: 1 2 3 4 5 6 7 8 9 10 11 12 13 14 15 16 17 18 19 20 21 22 23 24 25 26 27 28 29 30 31 32 33 34 35 36 37 38 39 40 41 42 43 44 45 46 47 48 49 50
000
ASUS44 KCRP 060710
HRRCRP

SOUTH TEXAS REGIONAL WEATHER ROUNDUP
NATIONAL WEATHER SERVICE CORPUS CHRISTI TX
200 AM CDT MON JUL 06 2015


TXZ229>244-060800-
...CORPUS CHRISTI AREA OBSERVATIONS...

CITY           SKY/WX    TMP DP  RH WIND       PRES   REMARKS
CORPUS CHRISTI MOCLDY    81  77  88 S15G24    30.00F
NAS CORPUS CHR MOCLDY    80  79  96 S17G26    30.00F
ROCKPORT       LGT RAIN  82  78  88 S9        30.01S HX  91
KINGSVILLE NAS CLEAR     80  79  96 S14       29.99F
ALICE          PTCLDY    79  76  90 S8        29.99S
FALFURRIAS     CLEAR     78  76  91 SE10      29.98F
$$

...VICTORIA AREA OBSERVATIONS...

CITY           SKY/WX    TMP DP  RH WIND       PRES   REMARKS
VICTORIA       CLOUDY    79  78  97 S6        30.03R
BEEVILLE       FAIR      78  78 100 S9        30.01S
PLEASANTON     MOCLDY    79  74  84 SE12G17   30.01S
SAN ANTONIO    CLOUDY    80  74  81 S14       30.02F
$$

...LAREDO AREA OBSERVATIONS...

CITY           SKY/WX    TMP DP  RH WIND       PRES   REMARKS
LAREDO         CLEAR     82  72  72 SE16      29.98S
COTULLA        LGT RAIN  81  73  76 SE10      29.98S
DEL RIO        PTCLDY    83  71  67 SE14      29.94S
MCALLEN        CLEAR     82  76  81 SE14      29.99F
HEBBRONVILLE     N/A     77  74  90 SE12G23   30.00F
$$

...OTHER TEXAS OBSERVATIONS...

CITY           SKY/WX    TMP DP  RH WIND       PRES   REMARKS
BROWNSVILLE    CLEAR     80  77  90 S13       30.01F
HOUSTON        MOCLDY    81  76  84 S5        30.04F
COL. STATION   PTCLDY    79  75  87 S10       30.03F
AUSTIN         CLOUDY    78  75  90 S13       30.02S
WACO           CLOUDY    79  73  82 S17       30.00F
FORT WORTH     MOCLDY    82  71  69 S18       29.95F
WICHITA FALLS  CLEAR     80  70  71 S13       29.91F
LUBBOCK        PTCLDY    78  64  61 S17       29.99S
EL PASO        MOCLDY    83  58  42 W13       30.04S
$$

...MARINE OBSERVATIONS...

STATION/POSITION TIME  SKY/WX   TEMP    WIND        PRES    VSBY  WAVE   SWELL
                                AIR SEA DIR/SP/G                  HT/PER HT/PER
                 (UTC)          (F)     (DEG/KT/KT) (MB)    (MI)  (FT/S) (FT/S)
PORT ARANSAS     0600            81 82  150/ 17/ 18 1016.8F
BUOY 90 E PORT A NOT AVBL
BUOY 45 SE BAFFI 0650            82 82  160/ 17/ 21 1015.7F         4/ 6   2/10
BUOY 200 E PT IS 0650            84 84  130/ 16/ 17 1018.5F         3/ 6   2/10
BUOY 15 E GALVES 0650            85 84  160/ 14/ 16 1017.1F         3/ 6
$$



USA.gov is the U.S. government's official web portal to all federal, state and local government web resources and services.